Home   Weather   Neuwied   Past weeks

Flag for Germany Past Weather in Neuwied, Rhineland-Palatinate, Germany — Yesterday and Last 2 Weeks

Now
63 °F

Partly sunny.


Feels Like: 63 °F
Forecast: 58 / 69 °F
Wind: 15 mph from Southwest

Location: Buechel

Current Time: Jun 28, 2017 at 12:24:22 pm

Latest Report: Jun 28, 2017 at 12:00 pm


Visibility: N/A

Pressure: 29.50 "Hg

Humidity: 88%

Dew Point: 59 °F

Location of NeuwiedLocation

Past Weather in Neuwied — Graph

°F

Neuwied Temperature Yesterday

Maximum temperature yesterday: 66 °F (at 3:20 pm)
Minimum temperature yesterday: 57 °F (at 6:20 am)
Average temperature yesterday: 62 °F

High & Low Weather Summary for the Past Weeks

 TemperatureHumidityPressure
High90 °F (Jun 22, 1:20 pm)100% (Jun 28, 1:20 am)30.33 "Hg (Jun 28, 1:20 am)
Low48 °F (Jun 17, 4:20 am)27% (Jun 20, 1:20 pm)29.50 "Hg (Jun 28, 11:20 am)
Average67 °F62%30.04 "Hg
* Reported Jun 13 11:20 am — Jun 28 11:20 am, Neuwied. Weather by CustomWeather, © 2017

Note: Actual official high and low records may vary slightly from our data, if they occured in-between our weather recording intervals... More about our weather records

Advertising

Neuwied Weather History for the Previous 24 Hours

Scroll right to see more
 ConditionsComfort  
Time TempWeatherWind HumidityBarometerVisibility
11:20 am
Wed, Jun 28
63 °FPartly sunny.15 mph94%29.50 "HgN/A
10:20 am61 °FFog.14 mph100%29.53 "Hg3 mi
9:30 am61 °FLight rain. Fog.16 mph94%29.53 "Hg2 mi
8:38 am59 °FRain showers. Fog.12 mph100%29.53 "Hg3 mi
8:20 am59 °FRain showers. Fog.12 mph100%29.53 "Hg2 mi
8:09 am59 °FSprinkles. Fog.10 mph100%29.53 "Hg2 mi
7:38 am61 °FPartly sunny.8 mph94%29.53 "Hg4 mi
6:20 am59 °FFog.7 mph100%29.53 "Hg2 mi
5:20 am59 °FLight rain. Fog.7 mph100%29.53 "Hg1 mi
4:20 am59 °FCool.3 mph94%29.56 "HgN/A
3:20 am61 °FCool.15 mph88%29.59 "Hg3 mi
2:20 am63 °FMild.3 mph94%29.59 "Hg4 mi
1:20 am63 °FMild.6 mph100%29.62 "Hg4 mi
12:20 am64 °FMild.5 mph94%29.65 "Hg4 mi
11:20 pm
Tue, Jun 27
64 °FMild.6 mph94%29.65 "Hg4 mi
10:20 pm64 °FMild.6 mph94%29.65 "Hg4 mi
9:20 pm64 °FMild.7 mph94%29.68 "Hg4 mi
8:20 pm64 °FMild.8 mph94%29.68 "Hg4 mi
7:20 pm64 °FMild.7 mph94%29.71 "Hg6 mi
6:20 pm63 °FMild.3 mph94%29.71 "Hg5 mi
5:20 pm66 °FThundershowers. Broken clouds.7 mph88%29.74 "HgN/A
4:55 pm66 °FThundershowers. Broken clouds.7 mph88%29.77 "HgN/A
3:20 pm66 °FPartly sunny.10 mph83%29.77 "HgN/A
2:20 pm63 °FPartly sunny.8 mph94%29.80 "Hg5 mi
1:20 pm63 °FLight rain. Partly sunny.7 mph94%29.83 "Hg4 mi
12:20 pm61 °FLight rain. Fog.8 mph94%29.83 "Hg3 mi
12:07 pm61 °FRain. Partly sunny.7 mph94%29.83 "Hg4 mi
Weather by CustomWeather, © 2017

See weather overviewHow to use our weather pages